WD1L Weather Reports


time (UTC)temp
C
wind
direction
speed
KPH
gust
KPH
rain 1hr
cm
rain 24hr
cm
rain mn
cm
humidity
%
barometer
mb
20260505083305 8 188 0.0 0.0 0.00 0.00 0.00 89 1008.2
20260505082805 8 188 0.0 0.0 0.00 0.00 0.00 89 1008.0
20260505082305 8 188 0.0 0.0 0.00 0.00 0.00 89 1008.0
20260505081305 8 188 0.0 0.0 0.00 0.00 0.00 88 1008.2
20260505080805 8 188 0.0 0.0 0.00 0.00 0.00 88 1008.2
20260505080305 8 188 0.0 0.0 0.00 0.00 0.00 88 1008.2
20260505074805 8 188 0.0 0.0 0.00 0.00 0.00 87 1008.2
20260505074306 9 188 0.0 0.0 0.00 0.00 0.00 88 1008.2
20260505073804 9 188 0.0 0.0 0.00 0.00 0.00 87 1008.2
20260505072805 9 188 0.0 0.0 0.00 0.00 0.00 87 1008.2
20260505072305 9 188 0.0 0.0 0.00 0.00 0.00 87 1008.2
20260505071805 9 188 0.0 0.0 0.00 0.00 0.00 87 1008.2
20260505071304 9 188 0.0 0.0 0.00 0.00 0.00 87 1008.2
20260505070305 9 188 0.0 0.0 0.00 0.00 0.00 86 1008.2
20260505065805 10 188 0.0 0.0 0.00 0.00 0.00 86 1008.2
20260505065305 10 188 0.0 0.0 0.00 0.00 0.00 86 1008.2
20260505064804 10 188 0.0 0.0 0.00 0.00 0.00 86 1008.2
20260505064306 10 188 0.0 0.0 0.00 0.00 0.00 86 1008.3
20260505063805 10 188 0.0 0.0 0.00 0.00 0.00 86 1008.3
20260505063305 10 188 0.0 0.0 0.00 0.00 0.00 86 1008.3
20260505062805 10 188 0.0 0.0 0.00 0.00 0.00 86 1008.3
20260505061805 10 188 0.0 0.0 0.00 0.00 0.00 85 1008.3
20260505060805 10 188 0.0 0.0 0.00 0.00 0.00 85 1008.3
20260505060305 10 188 0.0 0.0 0.00 0.00 0.00 85 1008.3
20260505055805 10 188 0.0 0.0 0.00 0.00 0.00 85 1008.3
20260505055305 10 188 0.0 0.0 0.00 0.00 0.00 85 1008.3
20260505054805 10 188 0.0 0.0 0.00 0.00 0.00 85 1008.3
20260505054305 10 188 0.0 0.0 0.00 0.00 0.00 85 1008.3
20260505053804 10 188 0.0 0.0 0.00 0.00 0.00 84 1008.3
20260505053305 10 188 0.0 0.0 0.00 0.00 0.00 84 1008.3
20260505052805 10 188 0.0 0.0 0.00 0.00 0.00 84 1008.3
20260505052305 10 188 0.0 0.0 0.00 0.00 0.00 84 1008.3
20260505051304 11 188 0.0 0.0 0.00 0.00 0.00 84 1008.5
20260505050805 11 188 0.0 0.0 0.00 0.00 0.00 84 1008.5
20260505041305 11 186 0.0 0.0 0.00 0.00 0.00 82 1008.7
20260505040805 11 186 0.0 0.0 0.00 0.00 0.00 82 1008.7
20260505040305 11 186 0.0 0.0 0.00 0.00 0.00 81 1008.7
20260505035805 11 186 0.0 0.0 0.00 0.00 0.00 81 1008.5
20260505035304 11 186 0.0 0.0 0.00 0.00 0.00 81 1008.5
20260505034804 11 186 0.0 0.0 0.00 0.00 0.00 81 1008.5
20260505034305 11 186 0.0 0.0 0.00 0.00 0.00 80 1008.6
20260505033805 11 186 0.0 0.0 0.00 0.00 0.00 80 1008.6
20260505033304 11 186 0.0 0.0 0.00 0.00 0.00 80 1008.6
20260505032305 11 186 0.0 0.0 0.00 0.00 0.00 79 1008.5
20260505031805 11 217 0.0 0.0 0.00 0.00 0.00 79 1008.5
20260505030805 11 217 0.0 0.0 0.00 0.00 0.00 78 1008.7
20260505025805 12 217 0.0 0.0 0.00 0.00 0.00 78 1008.7
20260505025305 12 217 0.0 0.0 0.00 0.00 0.00 78 1008.7
20260505024804 12 217 0.0 0.0 0.00 0.00 0.00 77 1008.7
20260505024306 12 217 0.0 0.0 0.00 0.00 0.00 77 1008.7
20260505023805 12 217 0.0 0.0 0.00 0.00 0.00 76 1008.7
20260505023305 12 217 0.0 0.0 0.00 0.00 0.00 76 1008.7
20260505022805 12 217 0.0 0.0 0.00 0.00 0.00 76 1008.7
20260505022305 12 217 0.0 0.0 0.00 0.00 0.00 75 1008.7
20260505021305 12 217 0.0 0.0 0.00 0.00 0.00 75 1008.7
20260505020805 12 217 0.0 0.0 0.00 0.00 0.00 74 1008.7
20260505020306 12 217 0.0 0.0 0.00 0.00 0.00 74 1008.7
20260505015806 13 218 0.0 0.0 0.00 0.00 0.00 74 1008.7
20260505015305 13 219 0.0 0.0 0.00 0.00 0.00 73 1008.7
20260505014805 13 219 0.0 0.0 0.00 0.00 0.00 73 1008.7
20260505014305 13 217 0.0 0.0 0.00 0.00 0.00 73 1008.4
20260505013805 13 218 0.0 0.0 0.00 0.00 0.00 73 1008.4
20260505013305 13 218 0.0 0.0 0.00 0.00 0.00 72 1008.4
20260505012805 13 218 0.0 0.0 0.00 0.00 0.00 72 1008.2
20260505012305 13 218 0.0 0.0 0.00 0.00 0.00 71 1008.2
20260505011304 13 217 0.0 0.0 0.00 0.00 0.00 70 1008.2
20260505010305 13 212 0.0 0.0 0.00 0.00 0.00 69 1008.2
20260505005804 13 208 0.0 0.0 0.00 0.00 0.00 69 1007.7
20260505005305 13 207 0.0 0.0 0.00 0.00 0.00 68 1007.7
20260505004805 13 207 0.0 0.0 0.00 0.00 0.00 68 1007.7
20260505004305 13 207 0.0 0.0 0.00 0.00 0.00 67 1007.5
20260505003305 14 207 0.0 0.0 0.00 0.00 0.00 65 1007.5
20260505002805 14 207 0.0 0.0 0.00 0.00 0.00 64 1007.2
20260505002305 14 209 0.0 0.0 0.00 0.00 0.00 64 1007.2
20260505001805 14 211 0.0 0.0 0.00 0.00 0.00 62 1007.2
20260505001305 14 212 0.0 0.0 0.00 0.00 0.00 62 1007.0
20260504234804 15 191 0.0 0.0 0.00 0.00 0.00 59 1006.7
20260504234305 15 190 0.0 0.0 0.00 0.00 0.00 59 1006.7
20260504233805 15 200 0.0 0.0 0.00 0.00 0.00 58 1006.7
20260504233305 15 200 0.0 0.0 0.00 0.00 0.00 58 1006.7
20260504232805 16 203 0.0 0.0 0.00 0.00 0.00 57 1006.3
20260504232305 16 201 0.0 0.0 0.00 0.00 0.00 56 1006.3
20260504230804 16 230 0.0 0.0 0.00 0.00 0.00 54 1006.1
20260504224805 17 203 0.0 6.4 0.00 0.00 0.00 52 1005.8
20260504224305 17 210 0.0 4.8 0.00 0.00 0.00 51 1005.7
20260504223805 17 186 0.0 4.8 0.00 0.00 0.00 51 1005.7
20260504223305 17 206 0.0 8.0 0.00 0.00 0.00 51 1005.7
20260504222805 17 205 0.0 8.0 0.00 0.00 0.00 51 1005.6
20260504222305 17 199 0.0 8.0 0.00 0.00 0.00 51 1005.6
20260504221805 18 157 0.0 8.0 0.00 0.00 0.00 51 1005.6
20260504221306 18 198 6.4 6.4 0.00 0.00 0.00 52 1005.6
20260504220805 18 204 0.0 1.6 0.00 0.00 0.00 51 1005.6
20260504215305 18 207 1.6 11.3 0.00 0.00 0.00 49 1005.5
20260504214805 18 233 0.0 11.3 0.00 0.00 0.00 50 1005.5
20260504213805 19 198 0.0 9.7 0.00 0.00 0.00 48 1005.3
20260504213305 19 188 0.0 4.8 0.00 0.00 0.00 48 1005.3
20260504212804 19 249 0.0 4.8 0.00 0.00 0.00 48 1005.4
20260504212305 19 198 0.0 4.8 0.00 0.00 0.00 48 1005.4
20260504211805 18 197 0.0 11.3 0.00 0.00 0.00 47 1005.4
20260504211305 19 214 0.0 11.3 0.00 0.00 0.00 47 1005.2
20260504205805 20 194 0.0 8.0 0.00 0.00 0.00 44 1005.1
20260504205305 20 203 0.0 8.0 0.00 0.00 0.00 44 1005.1
20260504204804 20 194 0.0 8.0 0.00 0.00 0.00 43 1005.1
20260504204304 20 233 0.0 8.0 0.00 0.00 0.00 43 1005.1
20260504203805 20 216 0.0 4.8 0.00 0.00 0.00 44 1005.1
20260504203305 20 198 0.0 4.8 0.00 0.00 0.00 42 1005.1
20260504202805 20 198 0.0 4.8 0.00 0.00 0.00 43 1005.1
20260504202305 20 198 0.0 4.8 0.00 0.00 0.00 41 1005.1
20260504201805 20 202 0.0 8.0 0.00 0.00 0.00 41 1005.1
20260504201305 20 229 0.0 9.7 0.00 0.00 0.00 40 1005.1
20260504200804 21 202 0.0 9.7 0.00 0.00 0.00 40 1005.1
20260504200305 21 164 0.0 8.0 0.00 0.00 0.00 38 1005.1
20260504195805 21 230 0.0 9.7 0.00 0.00 0.00 38 1005.1
20260504194805 21 207 0.0 17.7 0.00 0.00 0.00 38 1005.1
20260504194305 21 217 3.2 17.7 0.00 0.00 0.00 34 1005.1
20260504193805 21 271 0.0 16.1 0.00 0.00 0.00 37 1005.1
20260504193305 21 218 0.0 16.1 0.00 0.00 0.00 35 1005.1
20260504192805 21 229 0.0 19.3 0.00 0.00 0.00 34 1005.0
20260504192305 21 239 0.0 19.3 0.00 0.00 0.00 34 1005.0
20260504191805 22 229 4.8 14.5 0.00 0.00 0.00 34 1005.0
20260504190806 22 231 0.0 9.7 0.00 0.00 0.00 32 1005.1
20260504190304 22 231 8.0 11.3 0.00 0.00 0.00 34 1005.1
20260504185305 21 213 0.0 20.9 0.00 0.00 0.00 33 1005.2
20260504184805 21 260 0.0 20.9 0.00 0.00 0.00 34 1005.2
20260504184305 22 215 4.8 8.0 0.00 0.00 0.00 33 1005.3
20260504183805 21 214 0.0 11.3 0.00 0.00 0.00 33 1005.3
20260504183305 21 229 6.4 11.3 0.00 0.00 0.00 34 1005.3
20260504182804 21 233 4.8 19.3 0.00 0.00 0.00 35 1005.4
20260504182304 21 241 0.0 19.3 0.00 0.00 0.00 34 1005.4
20260504180805 21 176 0.0 14.5 0.00 0.00 0.00 34 1005.6
20260504180305 22 236 3.2 14.5 0.00 0.00 0.00 34 1005.6
20260504175805 22 242 0.0 17.7 0.00 0.00 0.00 35 1005.5
20260504174305 21 218 0.0 16.1 0.00 0.00 0.00 33 1005.5
20260504173805 21 216 0.0 19.3 0.00 0.00 0.00 34 1005.5
20260504173305 21 260 4.8 19.3 0.00 0.00 0.00 32 1005.5
20260504172805 21 255 3.2 19.3 0.00 0.00 0.00 32 1005.5
20260504172305 21 212 9.7 19.3 0.00 0.00 0.00 33 1005.5
20260504171805 21 234 6.4 22.5 0.00 0.00 0.00 33 1005.5
20260504171306 21 252 8.0 22.5 0.00 0.00 0.00 34 1005.6
20260504170804 21 233 3.2 19.3 0.00 0.00 0.00 32 1005.6
20260504170305 21 210 0.0 19.3 0.00 0.00 0.00 34 1005.6
20260504160321 20 207 11.3 11.3 0.00 0.00 0.00 37 1006.6
20260504150821 19 210 6.4 14.5 0.00 0.00 0.00 38 1006.9
20260504141322 18 219 0.0 11.3 0.00 0.00 0.00 44 1007.7
20260504140821 17 239 9.7 9.7 0.00 0.00 0.00 43 1007.7
20260504140321 17 210 0.0 6.4 0.00 0.00 0.00 45 1007.7
20260504130821 14 235 0.0 8.0 0.00 0.00 0.00 52 1008.2
20260504130321 14 231 0.0 6.4 0.00 0.00 0.00 53 1008.2
20260504110323 7 219 0.0 0.0 0.00 0.00 0.00 70 1008.7